Weather in Aleksandrovsky Zavod

Russia / Zabaykalsky Krai     50°55′27″N   117°56′07″E
temp.,
°C
wind,
m/s
gust,
m/s
humid.,
%
clouds,
%
prec.,
mm/h
press.,
hPa
HPBL,
m
13 may, thu
thu1300:00+4w11570 0.0 100510
03:00+3wsw22610 0.0 100611
06:00+2wsw22690 0.0 100720
09:00+8w69535 0.0 10061205
12:00+10w61033100 0.0 10051725
15:00+10w6936100 0.0 10051777
18:00+7w4654100 0.3 1006891
21:00+4ssw3475100 0.7 1007213
14 may, fri
fri1400:00+3ssw3485100 0.1 1007108
03:00+1sw2285100 0.1 100721
06:00+1wsw228390 0.0 100730
09:00+7nw24510 0.0 1006835
12:00+9nw5536100 0.4 10042455
15:00+8nw775867 1.3 10061491
18:00+8nnw675390 0.2 10061430
21:00+5wnw23605 0.2 100835
15 may, sat
sat1500:00+3wnw22696 0.0 101024
03:00+1nw278534 0.0 1011188
06:00+1nw22915 0.0 101337
09:00+7nnw58555 0.0 10131057
12:00+12nnw56395 0.0 10101667
15:00+15wnw472993 0.0 10082889
18:00+15w672835 0.0 10072801
21:00+9wsw22430 0.0 100812
16 may, sun
sun1600:00+7sw33425 0.0 100826
03:00+6ssw334389 0.0 100625
06:00+5wnw61361100 0.0 1007626
09:00+6wnw9134545 0.0 10061601
12:00+9nw8124236 0.0 10051861
15:00+15nw79295 0.0 10032253
18:00+16wnw71129100 0.0 10022417
21:00+11wnw6135398 0.0 1004696
17 may, mon
mon1700:00+8wnw6146310 0.0 1005689
03:00+6wnw36777 0.0 1006158
06:00+4wsw2286100 0.0 100732
09:00+9wnw345096 0.0 1006958
12:00+13w573811 0.0 10041736
15:00+16w71137100 0.0 10012588
18:00+14w51247100 0.0 10012054
21:00+12w6124898 0.0 1001610